Volver al catálogo

THORAD DELTA 1 DEB

ActivoLEO
NORAD 8784·DEBRIS·🇺🇸 United States

Lanzado Nov 15, 1974 desde Vandenberg Space Force Base

Loading…

Próximos Pases (próximas 24 horas)

TLE

ActualizadoSource: Space-Track

Época: Sep 13, 2026, 03:07 UTC

1  8784U 74089DL  26256.13026169  .00010346  00000-0  14448-1 0  9990
2  8784 100.9987 311.8031 0200591 355.4316  59.8963 13.49850535544235

Sigue THORAD DELTA 1 DEB en tiempo real con AllMySat

Download on the App Store